EN

Hourly Weather Tlyustenhabl

Today, 24 October, Saturday

Time Temperature Precipitation Wind Pressure Humidity
00:00 +14°C° 0 mm 1 mps 763 mmHg 81%
01:00 +13°C° 0 mm 1 mps 763 mmHg 82%
02:00 +13°C° 0 mm 1 mps 763 mmHg 83%
03:00 +13°C° 0 mm 1 mps 763 mmHg 84%
04:00 +12°C° 0 mm 1 mps 763 mmHg 84%
05:00 +12°C° 0 mm 1 mps 762 mmHg 83%
06:00 +12°C° 0 mm 1 mps 762 mmHg 83%
07:00 +13°C° 0 mm 1 mps 762 mmHg 76%
08:00 +15°C° 0 mm 2 mps 762 mmHg 70%
09:00 +16°C° 0 mm 2 mps 762 mmHg 63%
10:00 +18°C° 0 mm 2 mps 762 mmHg 55%
11:00 +20°C° 0 mm 2 mps 762 mmHg 47%
12:00 +24°C° 0 mm 2 mps 761 mmHg 39%
13:00 +24°C° 0 mm 2 mps 761 mmHg 36%
14:00 +25°C° 0 mm 3 mps 761 mmHg 34%
15:00 +25°C° 0 mm 3 mps 761 mmHg 32%
16:00 +24°C° 0 mm 3 mps 761 mmHg 37%
17:00 +21°C° 0 mm 2 mps 761 mmHg 43%
18:00 +19°C° 0 mm 2 mps 761 mmHg 48%
19:00 +18°C° 0 mm 2 mps 761 mmHg 51%
20:00 +17°C° 0 mm 2 mps 761 mmHg 54%
21:00 +16°C° 0 mm 1 mps 761 mmHg 56%
22:00 +16°C° 0 mm 1 mps 761 mmHg 55%
23:00 +16°C° 0 mm 1 mps 761 mmHg 53%

Tomorrow, 25 October, Sunday

Time Temperature Precipitation Wind Pressure Humidity
00:00 +15°C° 0 mm 1 mps 760 mmHg 51%
01:00 +15°C° 0 mm 1 mps 761 mmHg 50%
02:00 +15°C° 0 mm 1 mps 761 mmHg 48%
03:00 +15°C° 0 mm 1 mps 761 mmHg 47%
04:00 +15°C° 0 mm 1 mps 761 mmHg 50%
05:00 +14°C° 0 mm 1 mps 761 mmHg 53%
06:00 +14°C° 0 mm 1 mps 761 mmHg 56%
07:00 +15°C° 0 mm 1 mps 761 mmHg 55%
08:00 +16°C° 0 mm 1 mps 761 mmHg 54%
09:00 +19°C° 0 mm 1 mps 761 mmHg 53%
10:00 +20°C° 0 mm 1 mps 761 mmHg 51%
11:00 +22°C° 0 mm 1 mps 761 mmHg 48%
12:00 +24°C° 0 mm 1 mps 760 mmHg 46%
13:00 +24°C° 0 mm 1 mps 760 mmHg 44%
14:00 +25°C° 0 mm 1 mps 760 mmHg 42%
15:00 +26°C° 0 mm 1 mps 760 mmHg 40%
16:00 +24°C° 0 mm 1 mps 760 mmHg 45%
17:00 +22°C° 0 mm 1 mps 760 mmHg 51%
18:00 +21°C° 0 mm 1 mps 760 mmHg 57%
19:00 +20°C° 0 mm 1 mps 760 mmHg 60%
20:00 +20°C° 0 mm 1 mps 761 mmHg 63%
21:00 +18°C° 0 mm 2 mps 761 mmHg 67%
22:00 +18°C° 0 mm 2 mps 761 mmHg 70%
23:00 +17°C° 0 mm 2 mps 761 mmHg 72%

Day after tomorrow, 26 October, Monday

Time Temperature Precipitation Wind Pressure Humidity
00:00 +17°C° 0 mm 2 mps 761 mmHg 75%
01:00 +16°C° 0 mm 2 mps 761 mmHg 77%
02:00 +16°C° 0 mm 2 mps 761 mmHg 78%
03:00 +16°C° 0 mm 2 mps 761 mmHg 79%
04:00 +15°C° 0 mm 2 mps 761 mmHg 80%
05:00 +15°C° 0 mm 2 mps 761 mmHg 80%
06:00 +15°C° 0 mm 2 mps 761 mmHg 80%
07:00 +15°C° 0 mm 2 mps 761 mmHg 76%
08:00 +16°C° 0 mm 3 mps 761 mmHg 71%
09:00 +17°C° 0 mm 3 mps 761 mmHg 67%
10:00 +19°C° 0 mm 3 mps 761 mmHg 59%
11:00 +20°C° 0 mm 3 mps 761 mmHg 52%
12:00 +22°C° 0 mm 3 mps 761 mmHg 45%
13:00 +22°C° 0 mm 3 mps 761 mmHg 45%
14:00 +23°C° 0 mm 4 mps 760 mmHg 44%
15:00 +23°C° 0 mm 4 mps 760 mmHg 44%
16:00 +22°C° 0 mm 4 mps 760 mmHg 49%
17:00 +21°C° 0 mm 3 mps 760 mmHg 54%
18:00 +19°C° 0 mm 3 mps 760 mmHg 59%
19:00 +19°C° 0 mm 3 mps 760 mmHg 60%
20:00 +18°C° 0 mm 3 mps 760 mmHg 62%
21:00 +18°C° 0 mm 3 mps 760 mmHg 63%
22:00 +17°C° 0 mm 3 mps 760 mmHg 64%
23:00 +17°C° 0 mm 3 mps 761 mmHg 65%

, 27 October, Tuesday

Time Temperature Precipitation Wind Pressure Humidity
00:00 +16°C° 0 mm 3 mps 761 mmHg 66%
01:00 +16°C° 0 mm 3 mps 761 mmHg 66%
02:00 +16°C° 0 mm 3 mps 761 mmHg 67%
03:00 +14°C° 0 mm 3 mps 760 mmHg 67%
04:00 +14°C° 0 mm 3 mps 761 mmHg 68%
05:00 +14°C° 0 mm 3 mps 761 mmHg 69%
06:00 +14°C° 0 mm 3 mps 761 mmHg 69%
07:00 +14°C° 0 mm 3 mps 761 mmHg 67%
08:00 +15°C° 0 mm 4 mps 761 mmHg 65%
09:00 +15°C° 0 mm 4 mps 761 mmHg 62%
10:00 +18°C° 0 mm 4 mps 761 mmHg 58%
11:00 +19°C° 0 mm 4 mps 761 mmHg 54%
12:00 +21°C° 0 mm 4 mps 761 mmHg 50%
13:00 +21°C° 0 mm 4 mps 761 mmHg 49%
14:00 +22°C° 0 mm 4 mps 761 mmHg 47%
15:00 +22°C° 0 mm 4 mps 761 mmHg 46%
16:00 +21°C° 0 mm 4 mps 761 mmHg 50%
17:00 +20°C° 0 mm 5 mps 761 mmHg 54%
18:00 +17°C° 0 mm 5 mps 761 mmHg 59%
19:00 +17°C° 0 mm 5 mps 761 mmHg 63%
20:00 +16°C° 0 mm 5 mps 761 mmHg 66%
21:00 +15°C° 0 mm 5 mps 761 mmHg 70%
22:00 +14°C° 0 mm 4 mps 761 mmHg 72%
23:00 +14°C° 0 mm 4 mps 761 mmHg 73%

27 October, Tuesday

Time Temperature Precipitation Wind Pressure Humidity
00:00 +16°C° 0 mm 3 mps 761 mmHg 66%
01:00 +16°C° 0 mm 3 mps 761 mmHg 66%
02:00 +16°C° 0 mm 3 mps 761 mmHg 67%
03:00 +14°C° 0 mm 3 mps 760 mmHg 67%
04:00 +14°C° 0 mm 3 mps 761 mmHg 68%
05:00 +14°C° 0 mm 3 mps 761 mmHg 69%
06:00 +14°C° 0 mm 3 mps 761 mmHg 69%
07:00 +14°C° 0 mm 3 mps 761 mmHg 67%
08:00 +15°C° 0 mm 4 mps 761 mmHg 65%
09:00 +15°C° 0 mm 4 mps 761 mmHg 62%
10:00 +18°C° 0 mm 4 mps 761 mmHg 58%
11:00 +19°C° 0 mm 4 mps 761 mmHg 54%
12:00 +21°C° 0 mm 4 mps 761 mmHg 50%
13:00 +21°C° 0 mm 4 mps 761 mmHg 49%
14:00 +22°C° 0 mm 4 mps 761 mmHg 47%
15:00 +22°C° 0 mm 4 mps 761 mmHg 46%
16:00 +21°C° 0 mm 4 mps 761 mmHg 50%
17:00 +20°C° 0 mm 5 mps 761 mmHg 54%
18:00 +17°C° 0 mm 5 mps 761 mmHg 59%
19:00 +17°C° 0 mm 5 mps 761 mmHg 63%
20:00 +16°C° 0 mm 5 mps 761 mmHg 66%
21:00 +15°C° 0 mm 5 mps 761 mmHg 70%
22:00 +14°C° 0 mm 4 mps 761 mmHg 72%
23:00 +14°C° 0 mm 4 mps 761 mmHg 73%

28 October, Wednesday

Time Temperature Precipitation Wind Pressure Humidity
00:00 +13°C° 0 mm 3 mps 761 mmHg 75%
01:00 +13°C° 0 mm 3 mps 761 mmHg 75%
02:00 +13°C° 0 mm 3 mps 760 mmHg 76%
03:00 +12°C° 0 mm 3 mps 760 mmHg 76%
04:00 +12°C° 0 mm 4 mps 760 mmHg 77%
05:00 +12°C° 0 mm 4 mps 760 mmHg 78%
06:00 +12°C° 0 mm 4 mps 760 mmHg 80%
07:00 +12°C° 0 mm 4 mps 760 mmHg 75%
08:00 +13°C° 0 mm 4 mps 760 mmHg 70%
09:00 +14°C° 0 mm 4 mps 760 mmHg 65%
10:00 +17°C° 0 mm 4 mps 760 mmHg 58%
11:00 +19°C° 0 mm 4 mps 760 mmHg 51%
12:00 +21°C° 0 mm 4 mps 760 mmHg 44%
13:00 +22°C° 0 mm 5 mps 760 mmHg 43%
14:00 +22°C° 0 mm 5 mps 759 mmHg 41%
15:00 +23°C° 0 mm 5 mps 759 mmHg 40%
16:00 +22°C° 0 mm 5 mps 759 mmHg 45%
17:00 +20°C° 0 mm 4 mps 759 mmHg 50%
18:00 +19°C° 0 mm 4 mps 759 mmHg 55%
19:00 +18°C° 0 mm 4 mps 759 mmHg 57%
20:00 +17°C° 0 mm 4 mps 759 mmHg 58%
21:00 +17°C° 0 mm 3 mps 759 mmHg 60%
22:00 +17°C° 0 mm 3 mps 758 mmHg 61%
23:00 +16°C° 0 mm 3 mps 758 mmHg 62%

29 October, Thursday

Time Temperature Precipitation Wind Pressure Humidity
00:00 +16°C° 0 mm 3 mps 758 mmHg 63%
01:00 +16°C° 0 mm 2 mps 758 mmHg 64%
02:00 +15°C° 0 mm 2 mps 758 mmHg 65%
03:00 +15°C° 0 mm 2 mps 758 mmHg 66%
04:00 +15°C° 0 mm 2 mps 758 mmHg 67%
05:00 +14°C° 0 mm 2 mps 758 mmHg 69%
06:00 +14°C° 0 mm 2 mps 758 mmHg 71%
07:00 +15°C° 0 mm 2 mps 758 mmHg 67%
08:00 +14°C° 0 mm 3 mps 758 mmHg 64%
09:00 +16°C° 0 mm 3 mps 758 mmHg 60%
10:00 +18°C° 0 mm 2 mps 758 mmHg 53%
11:00 +20°C° 0 mm 2 mps 758 mmHg 47%
12:00 +24°C° 0 mm 2 mps 758 mmHg 40%
13:00 +24°C° 0 mm 2 mps 758 mmHg 38%
14:00 +25°C° 0 mm 1 mps 757 mmHg 37%
15:00 +25°C° 0 mm 1 mps 757 mmHg 36%
16:00 +24°C° 0 mm 1 mps 757 mmHg 40%
17:00 +21°C° 0 mm 2 mps 758 mmHg 45%
18:00 +20°C° 0 mm 2 mps 758 mmHg 49%
19:00 +19°C° 0 mm 2 mps 758 mmHg 54%
20:00 +19°C° 0 mm 2 mps 758 mmHg 59%
21:00 +18°C° 0 mm 2 mps 758 mmHg 64%
22:00 +18°C° 0 mm 2 mps 759 mmHg 70%
23:00 +18°C° 0 mm 2 mps 759 mmHg 76%
Show more

We Need Your Consent

Meteoprog and our Service Providers may store and access personal data such as cookies, device identifiers or other similar technologies on your device and process such data to personalise content and ads, as well as provide social media features and to analyse the traffic.

  • Store and/or access information on your device

    Cookies, device identifiers or other information can be stored or accessed on your device for the purposes indicated above.

  • Personalised ads and content, ad and content measurement, audience insights, and products development

    Ads and content can be personalised based on a profile. More data can be added to better personalise ads and content. Ad and content performance can be measured. Insights about the audience who saw the ads and content can be derived. Such data can be used to develop or improve user’s experience, systems and software.

By clicking ‘I Agree’ you will allow the use of indicated cookies, device identifiers, web beacons or other similar technologies. Your settings can be changed in the browser on your device.

For certain purposes, legitimate interests may be relied on, rather than consent. You can read more about this in our Privacy and Cookie Policy.